Location: PSU-Greenbush Astrophysical Observatory
(37.5140°N, 94.9880°W)
Time: 21:20:03
(UTC-06:00)

Altair - Pass Details

Date: 26 January 2020
Orbit: 1502 x 1682 km, 47.2° (Epoch: 16 February)

Event Time Altitude Azimuth Distance (km) Brightness Sun altitude
Rises 07:10:34 0° 212° (SSW) 4,813 10.0 -4.1°
Reaches altitude 10° 07:13:44 10° 208° (SSW) 3,853 9.5 -3.5°
Maximum altitude 07:23:11 52° 135° (SE) 1,998 8.7 -1.8°
Drops below altitude 10° 07:32:51 10° 63° (ENE) 3,946 10.3 0.0°
Sets 07:36:08 0° 59° (ENE) 4,938 10.7 0.6°
